This demonstration page uses our WeatherBlox Daily Observations layout. Learn more.

Left ArrowRight Arrow

38.80484, -77.04692

Hourly Observations for August 21, 2019

Temp ( °F °C ) Dew Point ( °F °C ) Humidity (%) Winds ( mph kmh ) Pressure ( in mb ) Visibility ( mi km ) Precip ( " mm )
12:52 am 00:52 Mostly Cloudy 74 23.3 67 19.4 79 79 WSW 5 7 30.05 1018 10 16 0.00 0.00
1:52 am 01:52 Cloudy 74 23.3 67 19.4 79 79 WSW 7 11 30.03 1017 10 16 0.00 0.00
2:52 am 02:52 Mostly Cloudy 73 22.8 68 20 84 84 WSW 7 11 30.02 1017 10 16 0.00 0.00
3:52 am 03:52 Mostly Cloudy 73 22.8 68 20 84 84 S 6 9 29.99 1016 10 16 0.00 0.00
4:52 am 04:52 Mostly Cloudy 72 22.2 67 19.4 84 84 SSW 6 9 29.99 1016 10 16 0.00 0.00
5:52 am 05:52 Mostly Cloudy 73 22.8 68 20 84 84 SSW 8 13 29.98 1015 10 16 0.00 0.00
6:52 am 06:52 Mostly Cloudy 73 22.8 68 20 84 84 SSW 7 11 29.99 1016 10 16 0.00 0.00
7:52 am 07:52 Mostly Cloudy 75 23.9 71 21.7 88 88 SSW 8 13 29.99 1016 10 16 0.00 0.00
8:52 am 08:52 Mostly Cloudy 80 26.7 72 22.2 76 76 SSW 9 15 29.98 1015 10 16 0.00 0.00
9:52 am 09:52 Mostly Cloudy 83 28.3 71 21.7 67 67 SSW 12 19 29.97 1015 10 16 0.00 0.00
10:52 am 10:52 Partly Cloudy 86 30 72 22.2 63 63 S 13 20 29.97 1015 10 16 0.00 0.00
11:52 am 11:52 Mostly Cloudy 87 30.6 73 22.8 63 63 S 16 26 29.95 1014 10 16 0.00 0.00
1:52 pm 13:52 Mostly Sunny 91 32.8 71 21.7 52 52 SSW 14 22 29.91 1013 10 16 0.00 0.00
2:52 pm 14:52 Partly Cloudy 91 32.8 70 21.1 50 50 S 10 17 29.90 1012 10 16 0.00 0.00
3:52 pm 15:52 Mostly Cloudy 91 32.8 72 22.2 54 54 S 16 26 29.88 1012 10 16 0.00 0.00
4:52 pm 16:52 Mostly Cloudy 91 32.8 74 23.3 57 57 S 16 26 29.86 1011 10 16 0.00 0.00
5:52 pm 17:52 Mostly Cloudy 89 31.7 75 23.9 63 63 S 14 22 29.86 1011 10 16 0.00 0.00
6:29 pm 18:29 Cloudy with Light Rain 81 27.2 72 22.2 74 74 NE 9 15 29.88 1012 8 13 0.01 0.25
6:52 pm 18:52 Mostly Cloudy 79 26.1 71 21.7 77 77 ENE 10 17 29.88 1012 10 16 0.01 0.25
7:26 pm 19:26 Mostly Cloudy 80 26.7 69 20.6 69 69 Calm 29.89 1012 10 16 0.00 0.00
7:42 pm 19:42 Mostly Cloudy with Thunderstorms 80 26.7 69 20.6 69 69 Calm 29.89 1012 10 16 0.00 0.00
7:52 pm 19:52 Mostly Cloudy with Thunderstorms 78 25.6 70 21.1 76 76 S 3 6 29.88 1012 10 16 0.00 0.00
8:30 pm 20:30 Mostly Cloudy with Nearby Thunderstorms 80 26.7 70 21.1 71 71 SE 3 6 29.88 1012 10 16 0.00 0.00
8:38 pm 20:38 Mostly Cloudy 79 26.1 71 21.7 77 77 Calm 29.89 1012 10 16 0.00 0.00
8:52 pm 20:52 Mostly Cloudy with Nearby Thunderstorms 80 26.7 71 21.7 74 74 S 5 7 29.90 1012 10 16 0.00 0.00
9:36 pm 21:36 Mostly Cloudy 80 26.7 70 21.1 71 71 Calm 29.91 1013 10 16 0.00 0.00
9:52 pm 21:52 Mostly Cloudy 80 26.7 71 21.7 74 74 NE 6 9 29.91 1013 10 16 0.00 0.00
10:52 pm 22:52 Mostly Cloudy 80 26.7 72 22.2 76 76 S 5 7 29.91 1013 10 16 0.00 0.00
11:52 pm 23:52 Cloudy 81 27.2 71 21.7 72 72 SSW 7 11 29.91 1013 10 16 0.00 0.00

Powered by AerisWeather